TimeCST,TemperatureF,Dew PointF,Humidity,Sea Level PressureIn,VisibilityMPH,Wind Direction,Wind SpeedMPH,Gust SpeedMPH,PrecipitationIn,Events,Conditions,WindDirDegrees,DateUTC
12:15 AM,37.4,35.6,93,29.64,10.0,NW,19.6,27.6,N/A,,Overcast,310,2013-11-09 06:15:00
12:35 AM,37.4,37.4,100,29.65,10.0,WNW,20.7,28.8,N/A,,Overcast,300,2013-11-09 06:35:00
12:55 AM,37.4,37.4,100,29.66,7.0,WNW,21.9,29.9,N/A,Rain,Light Rain,300,2013-11-09 06:55:00
1:15 AM,35.6,35.6,100,29.66,10.0,NW,18.4,25.3,N/A,,Overcast,310,2013-11-09 07:15:00
1:35 AM,35.6,35.6,100,29.67,10.0,NW,20.7,26.5,N/A,,Overcast,320,2013-11-09 07:35:00
1:55 AM,37.4,37.4,100,29.68,10.0,NW,19.6,28.8,N/A,,Overcast,310,2013-11-09 07:55:00
2:15 AM,37.4,37.4,100,29.69,10.0,NW,21.9,33.4,N/A,,Overcast,310,2013-11-09 08:15:00
2:35 AM,37.4,37.4,100,29.69,5.0,NW,21.9,29.9,N/A,,Overcast,320,2013-11-09 08:35:00
2:55 AM,37.4,37.4,100,29.70,10.0,NW,25.3,33.4,N/A,,Overcast,310,2013-11-09 08:55:00
3:15 AM,35.6,35.6,100,29.72,10.0,NW,21.9,32.2,N/A,,Overcast,310,2013-11-09 09:15:00
3:35 AM,35.6,35.6,100,29.73,10.0,WNW,20.7,28.8,N/A,,Overcast,300,2013-11-09 09:35:00
3:55 AM,35.6,35.6,100,29.75,5.0,WNW,21.9,32.2,N/A,,Overcast,300,2013-11-09 09:55:00
4:15 AM,35.6,35.6,100,29.76,8.0,NW,26.5,34.5,N/A,,Overcast,310,2013-11-09 10:15:00
4:35 AM,33.8,33.8,100,29.77,10.0,WNW,25.3,33.4,N/A,,Overcast,300,2013-11-09 10:35:00
4:55 AM,33.8,32.0,93,29.78,10.0,WNW,25.3,35.7,N/A,,Overcast,300,2013-11-09 10:55:00
5:15 AM,32.0,32.0,100,29.78,10.0,WNW,27.6,34.5,N/A,,Overcast,300,2013-11-09 11:15:00
5:35 AM,32.0,32.0,100,29.80,10.0,WNW,24.2,33.4,N/A,,Overcast,300,2013-11-09 11:35:00
5:55 AM,32.0,32.0,100,29.81,10.0,WNW,19.6,31.1,N/A,,Overcast,300,2013-11-09 11:55:00
6:15 AM,32.0,28.4,87,29.83,10.0,WNW,25.3,33.4,N/A,,Mostly Cloudy,300,2013-11-09 12:15:00
6:35 AM,32.0,28.4,87,29.83,10.0,NW,19.6,31.1,N/A,,Partly Cloudy,310,2013-11-09 12:35:00
6:55 AM,32.0,28.4,87,29.84,10.0,WNW,21.9,32.2,N/A,,Mostly Cloudy,300,2013-11-09 12:55:00
7:15 AM,32.0,28.4,87,29.84,10.0,WNW,21.9,29.9,N/A,,Overcast,300,2013-11-09 13:15:00
7:35 AM,32.0,28.4,87,29.85,10.0,WNW,18.4,29.9,N/A,,Overcast,290,2013-11-09 13:35:00
7:55 AM,33.8,26.6,75,29.86,10.0,WNW,20.7,32.2,N/A,,Overcast,300,2013-11-09 13:55:00
8:15 AM,33.8,26.6,75,29.87,10.0,WNW,23.0,35.7,N/A,,Overcast,300,2013-11-09 14:15:00
8:35 AM,33.8,26.6,75,29.87,10.0,WNW,24.2,29.9,N/A,,Overcast,300,2013-11-09 14:35:00
8:55 AM,33.8,26.6,75,29.88,10.0,WNW,23.0,31.1,N/A,,Overcast,300,2013-11-09 14:55:00
9:15 AM,33.8,26.6,75,29.89,10.0,WNW,25.3,38.0,N/A,,Overcast,300,2013-11-09 15:15:00
9:35 AM,33.8,26.6,75,29.90,10.0,NW,27.6,39.1,N/A,,Mostly Cloudy,310,2013-11-09 15:35:00
9:55 AM,33.8,26.6,75,29.91,10.0,WNW,24.2,36.8,N/A,,Overcast,300,2013-11-09 15:55:00
10:15 AM,33.8,26.6,75,29.91,10.0,WNW,31.1,40.3,N/A,,Overcast,300,2013-11-09 16:15:00
10:35 AM,32.0,26.6,80,29.92,10.0,WNW,28.8,39.1,N/A,,Overcast,290,2013-11-09 16:35:00
10:55 AM,32.0,26.6,80,29.94,10.0,NW,29.9,36.8,N/A,,Overcast,310,2013-11-09 16:55:00
11:15 AM,32.0,26.6,80,29.94,10.0,NW,19.6,40.3,N/A,,Overcast,310,2013-11-09 17:15:00
11:35 AM,32.0,26.6,80,29.95,10.0,WNW,31.1,39.1,N/A,,Overcast,300,2013-11-09 17:35:00
11:55 AM,32.0,26.6,80,29.96,10.0,NW,31.1,41.4,N/A,,Overcast,310,2013-11-09 17:55:00
12:15 PM,32.0,26.6,80,29.96,10.0,WNW,29.9,42.6,N/A,,Overcast,300,2013-11-09 18:15:00
12:35 PM,33.8,26.6,75,29.96,10.0,WNW,29.9,39.1,N/A,,Overcast,300,2013-11-09 18:35:00
12:55 PM,32.0,26.6,80,29.97,10.0,WNW,28.8,41.4,N/A,,Overcast,300,2013-11-09 18:55:00
1:15 PM,32.0,26.6,80,29.98,10.0,NW,32.2,41.4,N/A,,Overcast,310,2013-11-09 19:15:00
1:35 PM,32.0,26.6,80,30.00,10.0,NW,29.9,36.8,N/A,,Overcast,310,2013-11-09 19:35:00
1:55 PM,32.0,26.6,80,30.01,10.0,NW,29.9,38.0,N/A,,Overcast,310,2013-11-09 19:55:00
2:15 PM,33.8,28.4,81,30.02,10.0,NW,24.2,32.2,N/A,,Mostly Cloudy,320,2013-11-09 20:15:00
2:35 PM,33.8,28.4,81,30.03,10.0,NW,27.6,38.0,N/A,,Overcast,310,2013-11-09 20:35:00
2:55 PM,33.8,28.4,81,30.04,10.0,NW,28.8,39.1,N/A,,Overcast,310,2013-11-09 20:55:00
3:15 PM,33.8,28.4,81,30.05,10.0,NW,26.5,40.3,N/A,,Overcast,310,2013-11-09 21:15:00
3:35 PM,33.8,28.4,81,30.07,10.0,NW,25.3,35.7,N/A,,Overcast,310,2013-11-09 21:35:00
3:55 PM,33.8,28.4,81,30.08,10.0,NW,26.5,33.4,N/A,,Overcast,310,2013-11-09 21:55:00
4:15 PM,32.0,28.4,87,30.09,10.0,NW,25.3,34.5,N/A,,Overcast,320,2013-11-09 22:15:00
4:35 PM,32.0,28.4,87,30.11,10.0,NW,23.0,33.4,N/A,,Overcast,320,2013-11-09 22:35:00
4:55 PM,32.0,28.4,87,30.12,10.0,NW,21.9,28.8,N/A,,Overcast,320,2013-11-09 22:55:00
5:15 PM,32.0,26.6,80,30.13,10.0,NW,21.9,31.1,N/A,,Overcast,320,2013-11-09 23:15:00
5:35 PM,32.0,26.6,80,30.15,10.0,NW,19.6,33.4,N/A,,Overcast,320,2013-11-09 23:35:00
5:55 PM,32.0,26.6,80,30.16,10.0,NW,16.1,26.5,N/A,,Overcast,310,2013-11-09 23:55:00
6:15 PM,32.0,28.4,87,30.17,10.0,NW,16.1,23.0,N/A,,Overcast,310,2013-11-10 00:15:00
6:35 PM,32.0,28.4,87,30.19,10.0,NW,17.3,23.0,N/A,,Overcast,320,2013-11-10 00:35:00
6:55 PM,32.0,26.6,80,30.20,10.0,NNW,23.0,29.9,N/A,,Overcast,330,2013-11-10 00:55:00
7:15 PM,32.0,26.6,80,30.21,10.0,NW,18.4,32.2,N/A,,Overcast,320,2013-11-10 01:15:00
7:35 PM,32.0,26.6,80,30.20,10.0,NNW,16.1,24.2,N/A,,Overcast,330,2013-11-10 01:35:00
8:35 PM,32.0,26.6,80,30.23,10.0,NW,13.8,-,N/A,,Overcast,320,2013-11-10 02:35:00
8:55 PM,32.0,26.6,80,30.24,10.0,NNW,10.4,-,N/A,,Overcast,330,2013-11-10 02:55:00
9:15 PM,28.4,26.6,93,30.25,10.0,WNW,6.9,-,N/A,,Scattered Clouds,300,2013-11-10 03:15:00
9:35 PM,24.8,23.0,93,30.25,10.0,West,8.1,-,N/A,,Clear,280,2013-11-10 03:35:00
9:55 PM,21.2,21.2,100,30.26,10.0,West,9.2,-,N/A,,Clear,270,2013-11-10 03:55:00
10:15 PM,23.0,23.0,100,30.26,10.0,WNW,8.1,-,N/A,,Scattered Clouds,290,2013-11-10 04:15:00
10:35 PM,26.6,24.8,93,30.27,10.0,WNW,8.1,-,N/A,,Overcast,300,2013-11-10 04:35:00
10:55 PM,26.6,24.8,93,30.26,10.0,West,8.1,-,N/A,,Overcast,280,2013-11-10 04:55:00
11:15 PM,23.0,23.0,100,30.26,10.0,West,6.9,-,N/A,,Mostly Cloudy,260,2013-11-10 05:15:00
11:35 PM,23.0,23.0,100,30.26,10.0,WSW,8.1,-,N/A,,Mostly Cloudy,250,2013-11-10 05:35:00
11:55 PM,23.0,23.0,100,30.24,10.0,West,5.8,-,N/A,,Mostly Cloudy,280,2013-11-10 05:55:00